Погода в Товарково

Россия / Калужская область     54°40′38″N   35°56′33″E
темп.,
°C
ветер,
м/с
пор.,
м/с
влажн.,
%
обл.,
%
осадки,
мм/ч
давл.,
гПа
погр.,
м
16 июня, ср
ср1600:00+15ссз22930 0.0 101120
03:00+14сз22930 0.0 101135
06:00+15ссз26931 0.0 1012181
09:00+19с4669100 0.0 1013616
12:00+22с455946 0.0 10141398
15:00+23ссв455112 0.1 10141817
18:00+21ссв475986 0.0 1015692
21:00+15с377410 0.0 1018102
17 июня, чт
чт1700:00+13св347243 0.0 101946
03:00+11св227551 0.0 102131
06:00+12ссв25795 0.0 1023130
09:00+18св34615 0.0 1024465
12:00+22св34445 0.0 10241351
15:00+23ссв33415 0.0 10241447
18:00+23ссв23540 0.0 1024819
21:00+17всв22720 0.0 102514
18 июня, пт
пт1800:00+14юз118620 0.0 102610
03:00+13юз11860 0.0 102710
06:00+15зюз11805 0.0 102839
09:00+20всв00611 0.0 1028405
12:00+24ююв224766 0.0 10281443
15:00+25ю22471 0.0 10271685
18:00+24ю33605 0.0 1027732
21:00+18ююз22844 0.0 102723
19 июня, сб
сб1900:00+15ююз22905 0.0 102833
03:00+14юз229313 0.0 102919
06:00+16юз12885 0.0 102986
09:00+21ююз22660 0.0 1029566
12:00+24ю33520 0.0 10281204
15:00+25ююз33510 0.0 10271279
18:00+24ююз33602 0.0 1026886
21:00+18ю228195 0.0 102619
20 июня, вс
вс2000:00+16ююз22905 0.0 102721
03:00+14ююз22930 0.0 102713
06:00+16ююз13895 0.0 102789
09:00+22ююз236932 0.0 1027614
12:00+25ю34535 0.0 10251354
15:00+26ююз345151 0.0 10241418
18:00+25ююз336158 0.0 1023865
21:00+19ю22815 0.0 102311